Regional Weather Roundup
Issued by NWS

Home | Current Version | Previous Version | Text Only | Print | Product List | Glossary Off
Versions: 1 2 3 4 5 6 7 8 9 10 11 12 13 14 15 16 17 18 19 20 21 22 23 24 25 26 27 28 29 30 31 32 33 34 35 36 37 38 39 40 41 42 43 44 45 46 47 48 49 50

000
ASUS43 KBIS 260210
RWRND

NORTH DAKOTA REGIONAL WEATHER ROUNDUP
NATIONAL WEATHER SERVICE BISMARCK ND
900 PM CDT THU MAY 25 2017

NOTE: "FAIR" INDICATES FEW OR NO CLOUDS BELOW 12,000 FEET WITH NO
SIGNIFICANT WEATHER AND/OR OBSTRUCTIONS TO VISIBILITY.


NDZ001>003-009>011-017-260300-
NORTHWEST NORTH DAKOTA

CITY           SKY/WX    TMP DP  RH WIND       PRES   REMARKS
WILLISTON      MOCLDY    60  41  49 W10       29.53R
MINOT          CLOUDY    63  43  48 SW15      29.49R
MINOT AFB      CLOUDY    61  43  51 W15       29.48R
$$

NDZ018>021-031>035-040>046-260300-
SOUTHWEST NORTH DAKOTA

CITY           SKY/WX    TMP DP  RH WIND       PRES   REMARKS
BISMARCK       CLOUDY    64  44  48 W16       29.56R
DICKINSON      CLOUDY    55  40  56 W18G30    29.60R
GARRISON         N/A     58  42  55 W12       29.53R
HETTINGER ARPT CLEAR     53  45  74 W20G25    29.66R
$$

NDZ004>008-012>016-024-026-027-054-260300-
NORTHEAST NORTH DAKOTA

CITY           SKY/WX    TMP DP  RH WIND       PRES   REMARKS
GRAND FORKS    CLOUDY    66  52  60 S15       29.50R
GRND FRKS AFB  PTCLDY    64  51  62 S17       29.49R
DEVILS LAKE    CLOUDY    65  46  50 W9        29.49R
$$

NDZ022-023-025-028>030-036>039-047>053-260300-
SOUTHEAST NORTH DAKOTA

CITY           SKY/WX    TMP DP  RH WIND       PRES   REMARKS
FARGO          MOCLDY    67  52  58 SE15G26   29.53R
JAMESTOWN      FAIR      65  43  44 W9        29.50R
$$





USA.gov is the U.S. government's official web portal to all federal, state and local government web resources and services.